Weather in Machala

Ecuador     3°16′11″S   79°57′02″W
temp.,
°C
wind,
m/s
gust,
m/s
humid.,
%
clouds,
%
prec.,
mm/h
press.,
hPa
HPBL,
m
26 january, wed
wed2601:00+23w0194100 3.6 1011155
04:00+23ese0193100 0.8 101094
07:00+23ne119398 1.8 101283
10:00+25wsw0085100 0.4 1013302
13:00+27wnw117657 0.8 1011603
16:00+25se1187100 0.2 100988
19:00+24w1190100 1.0 1011110
22:00+24sw129090 1.6 1013217
27 january, thu
thu2701:00+24wsw3391100 3.0 1012245
04:00+24wsw3488100 0.6 1011318
07:00+24nw118498 0.7 1012176
10:00+25n227899 0.0 1014537
13:00+27nnw437283 0.1 1011822
16:00+27wnw326914 0.1 1010689
19:00+24w248696 0.8 1011198
22:00+24wsw238597 0.8 1013301
28 january, fri
fri2801:00+24sw2387100 1.4 1013244
04:00+23sw228785 0.3 1011209
07:00+23sw128798 0.7 1013206
10:00+24wnw1183100 0.1 1014350
13:00+25nnw328098 0.2 1012571
16:00+25nnw337898 0.1 1010515
19:00+24nw1285100 0.1 1011209
22:00+24wsw1284100 0.0 1014231
29 january, sat
sat2901:00+23ssw2487100 0.3 1013288
04:00+23sw1287100 0.6 1012215
07:00+23sw1286100 0.7 1013218
10:00+26nw227396 0.0 1014722
13:00+26nw3371100 0.1 1012692
16:00+27wnw3370100 0.0 1009690
19:00+25w3480100 0.1 1011266
22:00+24sw228395 0.0 1014200
30 january, sun
sun3001:00+24sw2381100 0.1 1013230
04:00+23w2383100 0.0 1011225
07:00+24sw1182100 0.0 1013260
10:00+25nw117492 0.0 1015591
13:00+27nw3270100 0.1 1012799
16:00+26wnw3370100 0.0 1010694
19:00+24w2379100 0.1 1012199
22:00+24sw2381100 0.0 1013239